GW2523 Weather Reports


time (UTC)temp
C
wind
direction
speed
KPH
gust
KPH
rain 1hr
cm
rain 24hr
cm
rain mn
cm
humidity
%
barometer
mb
20260507200020 7 16 3.2 12.9 0.00 0.00 0.00 77 1016.6
20260507194518 7 5 0.0 12.9 0.00 0.00 0.00 75 1016.4
20260507193017 7 31 1.6 12.9 0.00 0.00 0.00 74 1016.2
20260507191518 7 51 6.4 16.1 0.00 0.00 0.00 74 1016.1
20260507190015 8 13 1.6 12.9 0.00 0.00 0.00 73 1016.0
20260507184515 8 33 3.2 9.7 0.00 0.00 0.00 72 1015.9
20260507183012 9 32 6.4 14.5 0.00 0.00 0.00 71 1015.7
20260507181511 9 49 3.2 9.7 0.00 0.00 0.00 71 1015.5
20260507180013 9 11 1.6 9.7 0.00 0.00 0.00 72 1015.5
20260507174510 10 54 6.4 19.3 0.00 0.00 0.00 70 1015.4
20260507173006 10 34 4.8 14.5 0.00 0.00 0.00 70 1015.3
20260507171506 10 40 3.2 16.1 0.00 0.00 0.00 70 1015.2
20260507170006 10 28 1.6 17.7 0.00 0.00 0.00 70 1015.2
20260507164504 10 25 6.4 19.3 0.00 0.00 0.00 70 1015.0
20260507163003 10 42 8.0 19.3 0.00 0.00 0.00 69 1015.0
20260507161502 10 44 11.3 20.9 0.00 0.00 0.00 68 1015.0
20260507160002 10 59 4.8 19.3 0.00 0.00 0.00 69 1014.9
20260507154600 10 10 11.3 22.5 0.00 0.00 0.00 68 1014.9
20260507153101 10 45 8.0 22.5 0.00 0.00 0.00 68 1014.7
20260507151556 10 62 6.4 24.1 0.00 0.00 0.00 67 1014.5
20260507150056 10 13 4.8 22.5 0.00 0.00 0.00 67 1014.5
20260507144553 11 26 6.4 20.9 0.00 0.00 0.00 67 1014.4
20260507143052 11 360 11.3 22.5 0.00 0.00 0.00 66 1014.2
20260507141555 11 28 4.8 22.5 0.00 0.00 0.00 65 1014.2
20260507140107 11 30 9.7 20.9 0.00 0.00 0.00 64 1014.3
20260507134550 11 59 8.0 20.9 0.00 0.03 0.00 65 1014.2
20260507133049 11 56 4.8 22.5 0.00 0.03 0.00 64 1014.1
20260507131548 12 44 4.8 17.7 0.00 0.03 0.00 62 1014.0
20260507130046 12 34 11.3 19.3 0.00 0.03 0.00 60 1013.9
20260507124544 12 35 4.8 20.9 0.00 0.05 0.00 59 1013.7
20260507123043 12 46 3.2 22.5 0.00 0.05 0.00 57 1013.5
20260507121542 12 89 6.4 20.9 0.00 0.05 0.00 57 1013.5
20260507120040 12 61 4.8 24.1 0.00 0.05 0.00 56 1013.4
20260507114539 12 55 8.0 22.5 0.00 0.15 0.00 53 1013.3
20260507113040 13 55 8.0 22.5 0.00 0.15 0.00 51 1013.3
20260507111539 13 40 11.3 22.5 0.00 0.15 0.00 55 1013.2
20260507110034 12 44 11.3 29.0 0.00 0.15 0.00 57 1013.1
20260507104535 13 57 8.0 22.5 0.00 0.25 0.00 58 1013.0
20260507103028 12 46 11.3 27.4 0.00 0.25 0.00 58 1012.9
20260507101540 12 39 12.9 24.1 0.00 0.25 0.00 62 1012.8
20260507100031 12 45 6.4 22.5 0.00 0.25 0.00 66 1012.8
20260507094523 12 74 9.7 27.4 0.00 0.38 0.00 65 1012.6
20260507093027 12 19 11.3 29.0 0.00 0.38 0.00 63 1012.5
20260507091541 12 62 14.5 22.5 0.00 0.38 0.00 67 1012.4
20260507090013 12 38 19.3 25.7 0.00 0.38 0.00 69 1012.4
20260507084509 11 42 11.3 29.0 0.00 0.43 0.00 75 1012.4
20260507083004 10 36 11.3 27.4 0.00 0.43 0.00 76 1012.3
20260507081602 9 47 14.5 24.1 0.00 0.43 0.00 78 1012.3
20260507080057 9 46 16.1 32.2 0.00 0.43 0.00 79 1012.2
20260507074555 8 34 12.9 22.5 0.00 0.51 0.00 84 1012.1
20260507073101 7 69 12.9 24.1 0.00 0.51 0.00 85 1011.9
20260507071547 7 37 11.3 27.4 0.00 0.51 0.00 86 1011.9
20260507070114 6 34 11.3 24.1 0.00 0.51 0.00 87 1011.9
20260507064546 6 34 14.5 30.6 0.00 0.66 0.00 87 1011.7
20260507063038 6 28 12.9 25.7 0.00 0.66 0.00 88 1011.7
20260507061536 6 53 11.3 19.3 0.00 0.66 0.00 88 1011.6
20260507060033 6 44 8.0 19.3 0.00 0.66 0.00 87 1011.3
20260507054531 6 26 8.0 25.7 0.00 0.94 0.00 87 1011.3
20260507053028 5 34 8.0 22.5 0.00 0.94 0.00 87 1011.4
20260507051527 5 71 11.3 29.0 0.00 0.94 0.00 86 1011.1
20260507050031 6 60 14.5 30.6 0.00 0.94 0.00 84 1011.0
20260507044538 6 35 14.5 24.1 0.00 1.09 0.00 83 1010.8
20260507043018 6 57 14.5 24.1 0.00 1.09 0.00 83 1010.5
20260507041517 6 22 8.0 19.3 0.00 1.09 0.00 83 1010.4
20260507040017 6 22 8.0 19.3 0.00 1.09 0.00 83 1010.2
20260507034514 6 51 8.0 16.1 0.00 1.12 0.00 83 1010.2
20260507033012 6 31 8.0 16.1 0.00 1.12 0.00 84 1010.0
20260507031508 6 5 8.0 14.5 0.00 1.12 0.00 84 1009.8
20260507030005 6 30 6.4 16.1 0.00 1.12 0.00 85 1009.8
20260507024502 6 36 8.0 14.5 0.00 1.12 0.00 86 1009.8
20260507023100 6 22 6.4 19.3 0.00 1.12 0.00 86 1009.7
20260507021616 6 38 14.5 25.7 0.00 1.12 0.00 85 1009.7
20260507020106 6 38 8.0 24.1 0.00 1.12 0.00 85 1009.7
20260507014613 6 42 14.5 24.1 0.00 1.12 0.00 84 1009.6
20260507013055 6 18 14.5 24.1 0.00 1.12 0.00 83 1009.3
20260507011551 6 41 14.5 25.7 0.00 1.12 0.00 81 1009.2
20260507004549 6 51 8.0 19.3 0.00 1.12 0.00 80 1009.0
20260507003046 6 42 8.0 17.7 0.00 1.12 0.00 80 1009.3
20260507001550 6 35 8.0 16.1 0.00 1.12 0.00 80 1009.2
20260507000044 5 34 4.8 14.5 0.00 1.12 0.00 81 1009.2
20260506234540 6 42 6.4 17.7 0.00 1.12 0.00 82 1008.7
20260506233038 6 44 8.0 22.5 0.00 1.12 0.00 81 1008.8
20260506231536 6 94 8.0 22.5 0.00 1.12 0.00 80 1008.7
20260506230036 6 34 8.0 19.3 0.00 1.12 0.00 80 1008.7
20260506224535 6 40 14.5 29.0 0.00 1.12 0.00 80 1008.8
20260506223031 6 41 11.3 19.3 0.00 1.12 0.00 80 1008.5
20260506221527 6 66 6.4 19.3 0.00 1.12 0.00 80 1008.8
20260506220029 6 5 8.0 16.1 0.00 1.12 0.00 80 1008.7
20260506214521 6 53 8.0 19.3 0.00 1.12 1.12 80 1008.7
20260506213019 6 54 4.8 19.3 0.00 1.12 1.12 79 1008.5
20260506211517 6 65 12.9 27.4 0.00 1.12 1.12 79 1008.1
20260506210018 6 44 16.1 30.6 0.00 1.12 1.12 78 1007.9
20260506204516 6 61 8.0 24.1 0.00 1.12 1.12 78 1008.1
20260506203012 6 54 11.3 19.3 0.00 1.12 1.12 79 1008.0
20260506201511 6 62 11.3 24.1 0.00 1.12 1.12 80 1008.0